Weather History for Kodiak, AK

Change the Weather History Date:

Monday, April 7, 2014

  Actual Average Record
Temperature  
Mean Temperature 38 °F 36 °F  
Max Temperature 46 °F 41 °F 56 °F (1982)
Min Temperature 29 °F 30 °F 10 °F (1986)
Degree Days  
Heating Degree Days 27 29  
Month to date heating degree days 193 209  
Since 1 July heating degree days 6449 7080  
Cooling Degree Days 0    
Month to date cooling degree days 0  
Year to date cooling degree days 0  
Moisture  
Dew Point 27 °F    
Average Humidity 0    
Maximum Humidity 0    
Minimum Humidity 0    
Precipitation  
Precipitation T in 0.21 in 1.08 in (1985)
Month to date precipitation 1.43 1.37  
Year to date precipitation 26.64 21.33  
Snow  
Snow T in 0.40 in 11.20 in (1985)
Month to date snowfall 0.7 2.9  
Since 1 July snowfall 43.2 63.6  
Snow Depth 0.00 in    
Sea Level Pressure  
Sea Level Pressure 29.44 in    
Wind  
Wind Speed 8 mph (West)    
Max Wind Speed 20 mph    
Max Gust Speed 26 mph    
Visibility 10 miles    
Events Rain , Snow    
T = Trace of Precipitation, MM = Missing Value Source: NWS Daily Summary

Daily Weather History Graph

Daily Weather History Graph

Search for Another Location

Airport:

Trip Planner

Search our weather history database for the weather conditions in past years. The results will help you decide how hot, cold, wet, or windy it might be!

Date:

Astronomy

Apr. 07, 2014 Rise Set
Actual Time 7:20 AM AKDT 9:04 PM AKDT
Civil Twilight 6:40 AM AKDT 9:45 PM AKDT
Nautical Twilight 5:48 AM AKDT 10:37 PM AKDT
Astronomical Twilight 4:48 AM AKDT 11:38 PM AKDT
Moon 12:55 PM AKDT (4/7) 4:21 AM AKDT (4/7)
Length of Visible Light 15h 05m
Length of Day
13h 43m
First Quarter, 55% of the Moon is Illuminated
Apr 7
First Quarter
Apr 14
Full
Apr 21
Last Quarter
Apr 28
New
May 6
First Quarter

Hourly Weather History & Observations

Time (AKDT) Temp. Windchill Dew Point Humidity Pressure Visibility Wind Dir Wind Speed Gust Speed Precip Events Conditions
12:53 AM 36.0 °F - 34.0 °F 93% 29.53 in 10.0 mi Calm Calm - N/A   Overcast
1:53 AM 36.0 °F 32.1 °F 34.0 °F 93% 29.52 in 10.0 mi WNW 4.6 mph - N/A   Overcast
2:40 AM 35.6 °F - 33.8 °F 93% 29.51 in 10.0 mi Calm Calm - 0.00 in   Overcast
2:53 AM 36.0 °F - 34.0 °F 93% 29.51 in 10.0 mi Calm Calm - 0.00 in Rain Light Rain
3:06 AM 35.6 °F 32.8 °F 33.8 °F 93% 29.50 in 10.0 mi WSW 3.5 mph - 0.00 in Rain , Snow Light Rain
3:32 AM 35.6 °F - 33.8 °F 93% 29.50 in 10.0 mi Calm Calm - 0.00 in Rain , Snow Light Rain
3:45 AM 33.8 °F 30.8 °F 33.8 °F 100% 29.49 in 10.0 mi West 3.5 mph - 0.00 in Rain , Snow Light Rain
3:53 AM 33.1 °F 27.7 °F 32.0 °F 96% 29.49 in 9.0 mi West 5.8 mph - 0.00 in Snow Light Snow
4:53 AM 33.1 °F 30.0 °F 32.0 °F 96% 29.48 in 10.0 mi WNW 3.5 mph - 0.00 in   Mostly Cloudy
5:02 AM 32.0 °F 27.5 °F 32.0 °F 100% 29.48 in 10.0 mi West 4.6 mph - N/A   Scattered Clouds
5:53 AM 34.0 °F 29.8 °F 32.0 °F 92% 29.47 in 10.0 mi West 4.6 mph - N/A   Overcast
6:53 AM 36.0 °F 30.3 °F 32.0 °F 86% 29.46 in 10.0 mi WNW 6.9 mph - N/A   Mostly Cloudy
7:53 AM 36.0 °F 33.3 °F 33.1 °F 89% 29.44 in 10.0 mi NW 3.5 mph - N/A   Mostly Cloudy
8:53 AM 37.9 °F 33.5 °F 32.0 °F 79% 29.43 in 10.0 mi WNW 5.8 mph - N/A   Mostly Cloudy
9:53 AM 39.0 °F 33.4 °F 32.0 °F 76% 29.43 in 10.0 mi WNW 8.1 mph - N/A   Mostly Cloudy
10:53 AM 39.9 °F 32.5 °F 32.0 °F 73% 29.42 in 10.0 mi West 12.7 mph - N/A   Mostly Cloudy
11:53 AM 41.0 °F 34.3 °F 30.0 °F 65% 29.42 in 10.0 mi West 11.5 mph - N/A   Overcast
12:53 PM 42.1 °F 37.1 °F 28.9 °F 60% 29.41 in 10.0 mi West 8.1 mph - N/A   Mostly Cloudy
1:53 PM 44.1 °F 38.6 °F 28.0 °F 53% 29.39 in 10.0 mi WSW 10.4 mph - N/A   Mostly Cloudy
2:53 PM 44.1 °F 36.5 °F 25.0 °F 47% 29.39 in 10.0 mi West 17.3 mph 23.0 mph N/A   Scattered Clouds
3:53 PM 44.1 °F 37.4 °F 21.0 °F 40% 29.39 in 10.0 mi SW 13.8 mph - N/A   Clear
4:53 PM 42.1 °F 34.5 °F 19.0 °F 40% 29.39 in 10.0 mi West 15.0 mph 24.2 mph N/A   Mostly Cloudy
5:53 PM 41.0 °F 33.9 °F 14.0 °F 33% 29.39 in 10.0 mi West 12.7 mph 26.5 mph N/A   Scattered Clouds
6:53 PM 39.0 °F 31.4 °F 16.0 °F 39% 29.39 in 10.0 mi West 12.7 mph 18.4 mph N/A   Scattered Clouds
7:53 PM 36.0 °F 29.6 °F 15.1 °F 43% 29.39 in 10.0 mi SW 8.1 mph - N/A   Scattered Clouds
8:53 PM 34.0 °F 28.0 °F 14.0 °F 44% 29.40 in 10.0 mi Variable 6.9 mph 18.4 mph N/A   Partly Cloudy
9:53 PM 32.0 °F 22.1 °F 14.0 °F 48% 29.41 in 10.0 mi West 13.8 mph - N/A   Scattered Clouds
10:53 PM 30.9 °F 27.5 °F 14.0 °F 50% 29.42 in 10.0 mi WNW 3.5 mph - N/A   Partly Cloudy
11:53 PM 28.9 °F 21.1 °F 14.0 °F 54% 29.42 in 10.0 mi WNW 8.1 mph - N/A   Clear